This demonstration page uses our WeatherBlox Daily Observations layout. Learn more.

Left ArrowRight Arrow

47.50024, -111.30081

Hourly Observations for May 22, 2019

Temp ( °F °C ) Dew Point ( °F °C ) Humidity (%) Winds ( mph kmh ) Pressure ( in mb ) Visibility ( mi km ) Precip ( " mm )
12:06 am 00:06 Cloudy 40 4.4 40 4.4 100 100 ENE 15 24 29.96 1014 10 16 0.00 0.03
12:13 am 00:13 Cloudy 40 4.4 39 3.9 97 97 ENE 12 19 29.96 1014 10 16 0.00 0.03
12:20 am 00:20 Cloudy 41 5 37 2.8 86 86 E 15 24 29.95 1014 10 16 0.00 0.03
12:53 am 00:53 Cloudy 40 4.4 37 2.8 89 89 E 21 33 29.96 1015 10 16 0.00 0.03
1:53 am 01:53 Cloudy 39 3.9 37 2.8 93 93 E 12 19 29.97 1015 10 16 0.00 0.00
2:53 am 02:53 Cloudy 39 3.9 39 3.9 100 100 NE 10 17 29.99 1016 10 16 0.00 0.00
3:28 am 03:28 Cloudy 39 3.9 39 3.9 100 100 NE 9 15 29.99 1016 10 16 0.00 0.00
3:53 am 03:53 Cloudy with Light Rain 40 4.4 39 3.9 97 97 NE 10 17 30.00 1016 10 16 0.00 0.03
4:18 am 04:18 Partly Cloudy 39 3.9 39 3.9 100 100 NNE 8 13 30.00 1016 10 16 0.00 0.03
4:50 am 04:50 Cloudy 39 4 39 4 100 100 NNE 8 13 30.01 1016 10 16 0.00 0.03
4:53 am 04:53 Cloudy with Light Rain 40 4.4 40 4.4 100 100 NNE 8 13 30.02 1017 10 16 0.00 0.03
5:53 am 05:53 Cloudy with Light Rain 41 5 40 4.4 96 96 NNE 10 17 30.03 1017 10 16 0.00 0.03
6:27 am 06:27 Mostly Cloudy 40 4.4 40 4.4 100 100 NNW 8 13 30.02 1016 10 16 0.00 0.03
6:53 am 06:53 Mostly Cloudy 40 4.4 40 4.4 100 100 NNW 10 17 30.04 1017 10 16 0.00 0.03
7:53 am 07:53 Cloudy 42 5.6 41 5 96 96 NNW 9 15 30.06 1018 10 16 0.00 0.00
8:18 am 08:18 Cloudy 43 6.1 41 5 93 93 N 12 19 30.02 1017 10 16 0.00 0.00
8:53 am 08:53 Cloudy 45 7.2 41 5 86 86 N 13 20 30.05 1018 10 16 0.00 0.00
9:14 am 09:14 Mostly Cloudy 47 8.3 41 5 80 80 N 14 22 29.99 1016 10 16 0.00 0.00
9:53 am 09:53 Cloudy 48 8.9 40 4.4 74 74 NNE 12 19 30.05 1018 10 16 0.00 0.00
10:53 am 10:53 Mostly Cloudy 52 11.1 41 5 66 66 NNE 14 22 30.03 1017 10 16 0.00 0.00
11:03 am 11:03 Partly Cloudy 52 11.1 42 5.6 69 69 N 12 19 29.95 1014 10 16 0.00 0.00
11:53 am 11:53 Mostly Cloudy 54 12.2 40 4.4 59 59 NNE 13 20 30.03 1017 10 16 0.00 0.00
12:53 pm 12:53 Mostly Sunny 59 15 40 4.4 49 49 NNE 13 20 30.01 1016 10 16 0.00 0.00
1:53 pm 13:53 Mostly Cloudy 58 14.4 33 0.6 39 39 NE 15 24 30.01 1016 10 16 0.00 0.00
2:53 pm 14:53 Mostly Cloudy 61 16.1 34 1.1 36 36 ENE 20 31 30.01 1016 10 16 0.00 0.00
3:53 pm 15:53 Partly Cloudy 62 16.7 32 0 32 32 NE 14 22 30.01 1016 10 16 0.00 0.00
4:53 pm 16:53 Mostly Cloudy 61 16.1 32 0 34 34 NE 12 19 30.01 1016 10 16 0.00 0.00
5:53 pm 17:53 Mostly Cloudy 62 16.7 31 -0.6 31 31 NE 9 15 30.00 1016 10 16 0.00 0.00
6:53 pm 18:53 Mostly Cloudy 60 15.6 32 0 35 35 NE 8 13 30.01 1016 10 16 0.00 0.00
7:53 pm 19:53 Partly Cloudy 58 14.4 32 0 38 38 NE 9 15 30.02 1017 10 16 0.00 0.00
8:53 pm 20:53 Mostly Cloudy 54 12.2 35 1.7 49 49 N 6 9 30.04 1017 10 16 0.00 0.00
9:53 pm 21:53 Cloudy 50 10 36 2.2 59 59 N 6 9 30.06 1018 10 16 0.00 0.00
10:53 pm 22:53 Cloudy 52 11.1 36 2.2 55 55 E 5 7 30.05 1018 10 16 0.00 0.00
11:53 pm 23:53 Mostly Cloudy 50 10 34 1.1 54 54 ESE 3 6 30.05 1018 10 16 0.00 0.00

Powered by AerisWeather